Wind_Speed
7 6 8 8 9 11 11 13 11 5 8 12 8 4 4 4 3 4 6 9 11 7 4 6 9 12 12 12 12 13 13 13 14 13 12 12 12 12 13 14 13 13 13 15 18 18 17 17 17 16 16 16 16 16 17 16 16 15 16 17 16 16 15 13 12 12 10 9 9 10 8 6 5 7 10 9 9 9 8 9 9 8 8 8 8 7
8 7 9 10 12 13 11 13 10 6 7 10 8 4 4 3 4 5 6 9 7 4 4 6 10 12 11 11 11 11 11 13 15 15 13 13 12 11 12 15 14 12 12 15 16 17 18 17 18 17 16 17 17 17 17 16 16 16 16 16 16 16 14 13 12 11 10 8 9 10 8 6 4 5 7 7 9 9 8 9 9 8 8 8 7 6
7 8 11 12 12 13 13 12 8 8 9 7 7 5 4 2 5 4 5 8 4 1 6 8 8 8 5 6 8 10 10 9 11 12 14 15 12 11 12 12 13 13 13 14 15 17 18 18 19 18 16 17 18 18 17 16 17 16 16 16 15 15 14 13 12 11 11 9 9 9 8 8 7 5 5 7 9 9 8 9 8 9 8 8 7 6
7 8 12 14 12 12 14 12 8 8 7 7 7 4 5 4 4 2 5 8 3 1 5 7 4 2 3 3 0 5 6 2 1 2 6 13 12 12 13 13 13 14 14 14 15 16 18 19 19 18 17 18 18 18 18 17 17 17 17 17 16 15 14 14 13 12 12 10 9 8 8 9 8 7 7 8 9 8 9 9 9 9 9 8 7 7
7 8 12 15 13 12 14 11 7 7 5 7 8 6 7 7 3 1 5 6 3 1 5 7 4 1 2 2 2 4 2 2 3 6 6 11 13 12 13 14 13 12 13 14 15 15 17 19 18 18 19 18 18 18 18 18 17 17 18 18 17 16 15 15 14 13 13 11 10 9 8 9 9 8 9 9 9 9 9 9 9 9 9 8 8 7
8 9 13 15 14 13 12 8 6 5 6 5 9 10 12 11 6 4 8 7 2 1 6 8 3 1 4 5 5 6 4 3 2 2 6 10 12 13 12 14 13 11 12 13 15 15 16 19 19 18 19 19 18 18 18 19 18 17 18 18 17 16 15 16 15 14 13 12 11 11 9 9 9 9 10 9 9 10 10 9 9 9 9 8 8 6
7 11 9 10 15 15 11 7 7 7 8 3 10 14 14 14 12 9 10 6 2 2 6 7 2 2 4 7 7 7 7 7 5 6 8 7 5 11 12 12 13 13 13 13 14 15 16 19 19 18 19 20 19 19 19 19 18 18 19 18 18 17 16 17 16 14 14 12 11 10 9 8 8 7 7 8 9 9 9 9 9 9 8 7 7 6
9 15 10 9 14 12 9 7 9 11 7 2 11 17 17 16 15 14 10 5 3 4 5 6 2 2 5 8 10 9 8 9 8 8 9 5 4 11 13 14 14 14 14 13 13 15 16 18 20 19 20 20 19 19 19 19 19 20 20 19 18 18 17 17 17 15 14 13 12 10 8 8 8 7 6 7 7 7 8 9 9 9 9 8 7 7
12 14 7 7 9 6 7 8 11 13 6 4 6 10 17 18 15 13 9 4 4 5 5 7 5 2 3 6 10 10 9 11 11 11 11 8 7 9 11 13 16 14 14 14 14 14 16 19 21 20 20 20 20 20 20 19 19 20 20 20 18 18 17 18 18 16 14 13 12 11 9 8 9 8 7 7 7 6 7 9 8 9 9 7 6 6
8 5 2 4 6 4 7 10 12 13 6 4 5 5 10 18 15 12 9 5 5 4 4 10 10 4 2 5 8 8 9 11 11 12 11 10 11 10 11 14 16 14 13 14 15 14 17 21 22 21 21 20 20 20 19 19 19 20 20 19 19 18 17 18 18 16 14 13 12 11 10 9 9 8 7 8 9 8 9 8 7 9 10 7 6 6
6 4 7 6 7 7 11 10 8 9 5 2 2 6 6 11 13 11 7 5 4 4 4 10 14 8 2 3 8 8 10 13 12 10 11 11 13 13 13 15 15 13 13 14 14 15 18 21 22 22 21 20 20 20 20 19 20 20 20 19 19 18 18 19 18 17 15 13 13 12 11 10 9 8 8 9 10 8 8 8 7 7 8 8 8 6
10 7 8 5 8 9 12 10 7 10 9 3 3 7 6 6 6 4 4 4 3 4 3 7 14 12 4 2 8 11 11 13 14 13 15 16 14 13 12 14 15 14 14 14 13 14 16 18 20 22 22 20 19 20 21 21 20 21 20 20 20 19 18 19 19 17 16 14 13 12 12 12 10 9 8 9 10 8 8 9 8 7 7 7 8 8
10 7 7 3 9 10 13 10 7 6 8 6 5 8 6 4 2 1 3 3 3 1 1 2 9 9 5 3 8 15 13 12 15 14 16 18 16 13 12 12 14 15 16 14 12 13 13 14 18 21 21 21 20 20 21 21 21 21 21 21 21 20 19 19 18 18 16 15 14 13 14 14 12 11 10 8 10 10 9 10 10 9 8 7 8 9
8 5 6 6 7 10 14 9 7 5 7 7 7 7 6 3 3 5 5 3 2 2 3 3 4 2 3 4 10 17 16 13 14 15 15 18 17 15 13 12 13 15 16 15 13 13 12 13 18 20 20 20 20 20 21 21 22 21 22 22 21 20 19 19 19 18 17 16 15 14 15 14 12 12 12 9 9 10 10 10 11 11 10 9 9 8
8 7 10 11 7 10 13 9 7 7 7 8 8 7 7 5 4 4 2 2 3 2 5 2 2 2 2 3 9 9 12 12 14 14 14 16 16 15 13 11 12 14 14 13 13 14 14 17 20 20 21 20 20 22 21 21 24 23 22 23 22 21 20 20 19 19 18 16 16 15 14 15 13 11 11 10 9 11 11 11 11 11 11 10 10 9
9 7 11 16 11 11 13 12 9 8 7 8 8 7 7 5 4 4 3 6 5 2 5 4 4 2 2 2 5 5 3 6 11 14 14 14 15 15 13 12 12 12 12 12 14 14 15 19 21 20 22 21 20 22 21 22 25 24 23 24 22 21 20 20 20 19 19 18 17 16 15 16 15 13 12 11 11 12 12 11 11 11 10 9 9 10
5 8 7 16 13 12 15 14 11 9 5 4 7 9 7 5 4 5 3 8 8 5 3 4 4 4 4 3 2 2 5 4 6 13 15 15 17 16 14 13 11 11 11 10 11 12 14 18 20 21 23 22 21 22 21 23 24 24 25 24 23 22 21 21 20 19 19 18 18 17 16 16 15 15 14 13 12 12 11 10 10 10 10 8 9 10
3 10 5 12 12 11 14 14 13 13 8 3 5 7 7 5 3 4 4 5 7 5 3 4 4 4 3 2 4 5 1 4 6 12 15 15 17 17 15 13 12 11 11 10 9 11 13 17 19 20 22 23 23 22 21 24 25 23 24 24 23 23 22 21 20 19 19 18 18 17 17 16 16 15 14 13 12 11 11 10 9 9 9 8 9 9
3 8 2 10 11 10 11 10 11 13 14 8 4 3 6 5 3 3 3 4 5 4 2 3 5 3 2 2 5 5 3 7 10 12 15 16 16 16 15 15 14 11 7 5 4 5 9 16 19 20 22 22 23 23 21 23 24 21 22 23 23 22 22 21 20 19 19 18 16 16 16 16 16 15 15 15 14 12 12 11 9 10 10 9 10 10
5 7 2 6 9 8 9 8 8 10 12 10 6 4 6 5 3 3 3 4 4 1 1 0 3 2 3 3 7 6 7 13 14 13 15 17 17 16 15 14 12 7 3 2 4 6 10 16 20 20 21 22 22 23 23 23 23 21 20 21 21 21 21 21 19 19 18 17 15 15 16 16 16 15 14 15 14 13 13 13 11 11 11 11 12 11
6 5 4 5 7 6 7 8 8 9 10 9 7 7 7 6 5 5 5 5 3 2 2 2 0 1 3 2 7 12 13 11 12 14 13 14 16 15 15 14 10 8 7 6 6 5 8 14 22 22 20 20 20 21 22 21 21 21 20 20 20 20 21 20 19 20 18 17 16 15 15 16 15 14 14 13 12 12 12 13 13 12 11 11 12 12
3 3 5 4 5 6 7 9 10 12 10 10 9 8 7 6 8 7 6 6 5 3 3 3 1 1 2 2 2 9 11 4 9 12 12 12 14 14 14 13 9 8 9 6 4 4 2 6 11 15 12 13 16 18 20 20 19 19 18 19 19 18 19 18 19 21 20 18 18 17 15 15 15 14 14 13 12 12 12 12 13 12 11 11 11 11
5 3 5 7 5 9 12 8 13 14 14 13 12 10 8 6 7 7 6 5 5 4 4 4 1 2 1 4 1 1 5 5 4 8 10 11 12 13 12 11 7 5 6 5 6 6 3 1 5 12 7 5 8 11 8 7 11 14 14 16 16 15 16 17 17 19 20 18 17 16 15 14 14 14 14 14 13 13 12 12 12 11 11 10 11 11
5 3 3 7 9 10 16 11 12 14 14 13 12 12 10 9 9 8 6 4 3 3 3 0 0 1 1 1 3 6 6 1 3 7 10 11 10 11 12 10 7 8 11 9 5 2 3 7 11 14 9 7 14 16 7 1 1 8 12 14 14 11 11 14 15 16 17 17 16 15 15 14 13 13 13 14 13 13 13 12 12 12 11 11 11 11
3 3 2 5 7 6 8 8 9 12 9 9 9 12 13 13 13 11 9 3 3 3 3 2 1 3 2 1 6 10 6 6 4 5 8 9 9 11 12 10 8 10 11 9 7 3 4 9 10 11 10 12 17 19 15 10 7 8 13 14 14 12 11 12 14 16 16 16 15 15 15 15 14 14 14 14 13 12 13 13 13 13 13 12 12 12
3 3 3 4 6 6 4 3 3 4 7 8 11 13 16 15 14 12 9 5 4 4 5 3 3 7 7 5 8 11 6 2 4 3 5 8 10 10 11 11 10 11 10 9 9 5 5 7 9 11 10 12 17 17 16 17 15 13 14 13 12 14 16 13 13 15 16 16 16 14 15 15 14 14 14 14 13 13 13 13 13 14 14 13 14 13
5 4 4 6 8 8 7 8 11 11 7 9 12 15 13 15 14 11 9 6 3 3 3 1 6 10 8 8 9 8 7 6 2 3 4 5 10 11 10 11 12 11 9 9 9 6 5 6 5 7 7 9 14 15 13 16 17 15 14 13 11 13 16 15 13 14 15 16 16 15 14 14 14 14 14 13 13 13 13 13 12 13 13 13 13 13
5 5 5 8 10 12 13 13 15 15 12 8 9 14 15 12 14 12 13 7 1 1 2 3 9 11 6 8 10 5 2 6 4 2 4 3 7 10 11 13 15 14 11 12 12 10 9 8 5 4 4 5 8 11 12 13 15 15 13 12 11 11 14 14 13 12 13 14 14 14 15 15 14 13 13 12 13 14 14 13 12 13 12 10 12 14
5 4 6 9 10 12 13 14 15 14 12 13 11 14 16 14 12 14 16 12 6 2 6 9 13 13 5 6 11 7 5 5 5 3 1 2 4 8 11 14 16 16 15 15 15 14 12 11 9 7 6 5 4 5 6 8 12 14 12 11 12 11 12 13 12 11 11 12 13 13 14 15 14 13 13 12 12 13 14 14 12 13 12 11 11 12
3 4 6 9 9 11 12 13 16 14 12 16 16 13 13 15 15 16 16 15 13 6 14 18 16 14 7 5 10 10 9 8 5 4 4 5 2 3 9 13 14 15 16 16 15 14 13 12 12 12 11 9 6 4 3 3 6 9 7 8 10 9 9 10 12 13 12 12 12 12 12 12 11 11 11 11 10 9 10 10 9 9 10 11 11 11
1 2 5 7 7 9 12 13 14 16 16 16 13 8 8 9 10 12 11 10 10 5 13 20 16 12 6 5 8 9 9 9 6 7 7 2 4 3 2 7 9 9 11 13 12 12 12 12 11 12 11 10 8 7 5 3 3 4 4 5 5 5 5 5 7 9 10 10 11 10 11 11 10 9 9 9 8 7 8 9 8 9 10 11 11 11
2 3 5 6 5 8 9 7 9 11 10 5 8 15 17 15 15 14 9 6 7 4 7 14 11 7 5 7 8 7 8 8 7 7 6 5 4 4 4 7 7 6 6 7 9 11 10 11 11 11 11 11 9 7 5 4 3 2 2 5 5 6 6 6 6 7 8 9 9 8 9 9 9 8 7 7 7 7 7 9 11 11 12 11 10 9
3 4 4 2 4 7 6 7 14 11 2 5 9 13 14 13 13 15 15 17 17 10 2 5 6 7 7 7 7 7 7 6 6 5 5 8 9 6 7 9 5 2 6 8 9 10 10 10 11 11 12 13 12 11 9 9 11 12 9 5 3 4 4 4 5 6 6 7 8 7 7 7 7 6 6 7 8 7 8 10 13 14 14 14 12 10
3 4 3 1 2 7 7 4 6 5 1 3 6 8 10 13 15 15 15 17 17 14 9 6 5 5 6 7 8 9 8 7 8 9 8 9 9 7 8 6 1 2 9 12 11 11 13 14 14 14 14 14 14 13 13 13 14 14 14 12 9 7 6 5 2 1 2 4 4 5 6 7 8 9 9 10 10 10 10 12 12 13 14 15 15 13
3 2 3 3 3 4 5 5 2 1 1 2 5 7 6 10 13 14 16 17 16 14 11 8 5 5 8 11 11 10 9 9 11 11 10 10 9 7 5 5 6 9 11 12 11 12 14 15 16 15 14 13 13 12 11 12 12 13 14 13 12 12 11 10 10 7 3 1 3 4 4 4 4 6 7 9 11 11 11 12 12 14 14 14 14 14
3 1 0 3 4 4 2 2 2 1 2 2 5 5 4 6 10 12 13 13 13 12 10 7 4 4 11 12 8 8 11 12 12 11 9 9 9 8 7 8 10 11 11 12 13 13 15 16 15 14 12 11 11 11 11 11 11 13 14 14 15 16 16 16 16 14 12 9 6 4 2 1 3 4 3 3 4 5 6 9 12 15 15 14 13 15
3 0 1 1 4 4 1 2 1 1 2 2 3 5 3 3 6 9 7 8 10 9 7 6 6 4 8 9 7 8 12 13 12 10 10 11 11 11 12 13 13 13 13 14 16 17 18 18 16 14 12 11 12 12 12 11 11 13 15 15 16 18 19 21 20 18 17 15 13 12 9 6 4 3 3 4 3 2 1 3 6 9 11 11 13 16
3 3 2 2 2 2 0 2 3 3 2 1 2 5 5 5 3 7 7 7 9 7 7 7 6 8 3 5 7 9 11 10 9 8 9 12 13 13 14 15 15 15 14 15 17 18 19 20 19 17 15 13 13 13 12 12 13 15 16 16 16 17 19 21 20 18 18 17 16 15 13 12 11 9 8 8 7 7 5 1 2 4 8 11 11 13
4 5 3 3 2 2 1 1 2 2 2 2 4 5 4 5 5 2 3 6 7 6 8 8 3 4 5 3 2 4 6 7 6 4 5 9 10 11 11 12 14 15 14 15 16 16 18 20 21 20 18 16 14 12 13 13 14 15 15 15 15 15 16 18 18 19 19 17 16 15 14 13 13 12 12 12 11 11 9 6 3 3 6 8 8 8
6 4 4 3 3 3 3 2 0 1 2 3 6 6 5 5 7 6 3 4 6 7 9 7 5 5 4 4 5 5 3 3 5 3 3 7 10 11 11 11 12 14 15 16 16 16 16 16 16 17 17 16 14 12 11 12 12 13 14 14 14 14 13 15 16 17 16 15 14 14 14 14 13 12 12 12 12 11 9 9 8 4 1 1 0 2
4 3 4 5 3 3 4 3 2 0 4 7 8 8 7 6 6 2 3 2 4 6 9 9 7 5 4 5 5 2 1 3 6 6 6 7 9 11 12 12 13 14 15 16 15 13 13 13 13 15 15 14 12 10 10 10 12 14 14 14 14 13 12 12 13 13 12 12 12 12 13 14 13 13 12 11 11 10 9 9 9 8 7 5 4 6
2 1 1 1 1 1 2 3 3 1 4 8 8 8 9 5 0 3 3 2 4 6 9 9 7 5 4 5 5 4 6 8 9 8 8 8 8 10 12 13 13 14 15 14 13 13 13 13 13 14 13 12 11 10 10 10 12 13 14 14 13 12 11 10 9 10 10 10 11 10 11 12 12 13 14 13 10 9 9 8 9 9 8 7 6 8
1 2 3 2 2 2 2 3 3 1 3 8 7 5 6 4 4 4 2 4 6 7 7 8 6 5 6 6 8 9 10 11 11 9 9 8 7 10 13 12 10 12 14 13 13 13 13 13 12 12 12 11 11 11 11 10 11 11 12 12 12 11 11 9 8 9 9 8 9 10 9 9 9 11 13 13 11 10 9 8 8 9 8 8 9 9
2 2 2 2 3 2 1 2 3 2 3 6 3 3 6 6 5 3 3 6 7 6 6 6 6 6 6 7 8 10 9 10 10 9 9 7 5 8 13 12 11 12 13 12 12 13 12 11 12 12 12 11 11 11 10 10 10 11 11 11 10 9 9 9 8 8 8 7 6 7 7 7 7 8 8 8 7 8 8 7 7 8 7 7 7 7
2 1 3 4 5 3 3 4 5 4 5 7 7 7 7 8 7 7 7 7 6 6 5 5 6 7 6 6 7 8 8 8 8 7 7 8 7 8 10 12 12 13 13 13 14 14 12 11 11 11 12 11 11 10 10 10 10 10 10 9 8 8 7 8 8 8 8 7 6 5 5 5 6 6 6 5 5 5 6 5 5 6 7 8 8 8
2 4 5 5 7 8 7 6 6 7 7 7 8 8 7 8 9 9 9 8 7 7 6 5 6 7 6 5 5 5 5 5 6 6 6 7 8 9 9 11 12 12 13 13 13 13 11 10 10 11 11 11 11 10 10 9 9 9 9 7 7 7 7 7 8 8 6 6 5 5 4 5 5 4 4 3 3 4 4 3 3 3 6 8 8 8
4 4 4 6 8 7 6 6 7 8 7 7 8 7 7 8 8 7 7 7 7 7 7 7 6 6 6 6 5 5 4 2 3 5 5 5 6 7 7 9 11 12 13 13 11 10 10 10 10 11 11 10 10 10 10 9 9 8 7 7 7 6 6 5 5 6 6 5 5 6 7 6 4 3 2 2 2 4 5 4 3 3 5 6 5 6
3 2 1 6 7 5 6 8 8 7 7 7 7 7 6 7 7 7 7 7 7 7 8 8 7 6 6 6 6 6 6 4 3 4 5 5 5 4 5 7 8 10 13 12 11 10 10 10 10 11 10 10 10 10 9 9 8 7 6 6 6 5 4 3 2 3 4 5 5 5 5 5 4 4 4 4 4 5 6 6 6 7 7 5 4 5
2 2 2 7 7 6 8 9 7 6 7 7 8 8 7 6 6 6 7 7 8 8 7 8 9 8 7 7 6 5 7 7 6 5 5 6 6 5 6 6 7 10 11 10 9 9 10 11 11 10 10 10 9 9 9 8 8 7 6 5 5 4 4 3 2 2 3 4 5 5 3 4 5 5 5 6 5 5 7 7 7 7 7 5 4 4
2 1 3 4 4 4 7 8 5 4 5 7 8 7 6 6 7 7 7 7 8 7 7 7 9 8 9 9 8 7 7 6 5 5 5 4 6 7 7 5 6 8 9 9 9 9 10 11 11 10 10 10 9 9 8 7 7 7 6 5 4 3 4 3 2 3 4 5 6 6 5 6 6 5 5 6 6 5 6 6 5 4 4 5 6 6
2 5 4 3 3 6 8 7 4 3 6 8 8 7 6 6 6 6 6 6 6 7 6 7 7 7 7 8 9 9 7 4 6 9 7 4 5 7 7 6 6 7 8 9 10 10 10 10 10 11 11 10 10 10 9 8 7 7 6 6 5 4 4 2 1 2 4 5 5 5 5 6 6 4 4 5 5 4 3 3 3 3 3 4 5 5
Wind_Direction
210 212 218 219 227 227 218 230 232 175 143 141 156 199 152 138 130 160 176 174 172 158 177 179 145 148 153 160 166 162 175 176 172 178 174 168 162 166 171 159 164 172 162 159 162 160 156 153 149 150 153 151 150 147 146 148 146 142 141 142 144 143 142 144 146 144 145 144 138 142 140 132 125 129 145 153 153 151 145 148 149 143 148 146 140 147
208 224 229 219 226 234 229 231 222 206 196 150 141 153 132 130 129 162 182 171 187 179 173 189 155 149 153 161 168 164 174 180 175 179 179 173 169 174 173 160 164 172 162 160 164 163 160 158 153 153 157 154 152 151 153 155 151 149 149 148 148 147 150 150 149 149 143 138 144 148 142 141 138 135 156 160 148 148 150 154 153 145 152 151 144 155
202 230 235 227 228 235 243 238 206 213 222 143 124 140 129 103 100 123 199 173 180 190 162 177 159 138 138 157 167 176 180 178 180 183 181 176 174 183 173 157 166 170 164 164 168 167 164 161 156 157 161 158 155 157 158 158 155 155 153 153 152 150 154 151 147 148 140 135 148 154 153 152 149 148 162 159 147 142 146 157 158 155 159 156 153 156
203 223 229 236 234 226 243 242 199 218 228 133 131 137 128 152 113 98 224 177 141 353 149 148 131 87 0 357 118 199 180 126 333 299 208 186 175 190 178 159 173 172 165 170 171 169 166 164 161 160 164 160 159 162 162 162 162 160 157 158 158 153 155 154 149 145 139 138 141 139 150 158 156 161 161 151 152 153 154 163 164 162 165 160 158 162
227 217 211 230 239 226 237 237 191 215 227 144 144 145 143 144 107 155 193 158 119 60 130 122 94 54 274 285 270 239 176 83 3 3 300 215 179 193 184 164 180 175 165 175 174 173 169 166 164 163 167 164 164 167 165 167 167 163 161 161 161 156 156 157 152 149 143 141 139 128 136 150 147 160 167 156 157 163 162 169 172 167 170 166 162 164
240 234 207 210 227 226 234 231 178 200 235 179 142 147 154 134 105 166 159 139 136 151 158 157 136 148 220 217 221 225 185 163 159 86 276 240 187 197 190 168 185 179 169 178 175 176 173 167 166 167 170 168 169 171 169 171 170 164 162 163 162 157 157 155 153 157 152 146 151 144 141 148 149 160 172 163 158 167 170 170 169 166 171 170 163 164
246 253 228 211 227 217 215 218 174 198 247 211 135 140 146 131 127 159 157 143 162 152 184 199 165 120 207 224 219 218 199 183 174 175 225 253 209 208 196 174 186 183 174 182 179 179 176 169 168 170 175 174 173 174 172 173 170 163 162 164 164 160 158 156 157 161 154 151 159 155 151 156 157 160 169 165 157 169 178 167 159 164 171 169 163 165
236 248 232 228 242 210 196 209 182 208 246 126 143 146 140 137 140 159 171 174 167 130 164 209 223 139 193 214 204 199 202 195 192 197 208 225 230 223 207 182 185 186 178 181 185 181 176 173 172 174 180 179 175 174 173 174 169 162 163 165 164 163 160 159 161 159 155 158 160 157 157 156 155 152 149 154 149 154 169 160 155 163 168 173 176 170
214 241 224 227 249 189 190 212 190 211 223 133 183 165 143 147 148 161 178 173 162 147 156 189 199 188 178 184 184 186 198 204 201 200 198 199 207 231 231 199 185 186 183 183 190 185 176 175 176 177 182 182 178 175 173 174 167 160 163 166 165 166 162 160 161 160 159 160 159 162 162 152 155 155 142 147 147 141 152 155 161 164 163 179 186 170
202 226 185 241 258 203 219 222 199 207 200 138 234 244 157 154 152 167 183 155 158 184 187 184 186 196 182 164 171 183 202 205 201 198 194 193 193 209 234 216 191 185 187 187 190 188 178 178 179 178 184 185 179 175 174 171 165 161 165 167 166 167 164 163 163 162 163 160 159 165 160 150 156 161 160 160 154 146 148 150 158 162 161 177 183 169
271 194 176 214 233 229 243 238 197 187 181 101 217 248 220 178 167 171 168 133 154 209 210 189 187 194 216 175 179 193 208 201 192 190 188 191 194 197 215 215 196 188 190 187 187 187 181 181 181 178 184 188 179 174 173 168 163 164 168 167 167 169 167 166 166 165 165 162 162 166 161 154 157 164 166 159 152 150 157 158 160 168 169 176 183 182
262 197 162 219 232 231 245 231 166 156 173 168 210 233 241 213 190 164 133 138 192 216 222 195 189 199 224 219 200 209 214 197 187 190 188 190 197 196 208 210 195 191 192 187 184 183 181 183 182 179 183 187 180 173 170 170 168 166 168 168 167 171 169 167 168 169 168 166 166 171 169 159 156 169 172 159 158 167 175 173 170 178 182 178 187 194
234 195 130 231 233 226 242 219 150 155 186 183 214 230 232 214 202 216 177 190 223 201 344 166 170 197 242 280 228 216 213 199 191 194 187 186 193 195 204 208 197 194 190 186 184 180 183 185 182 181 182 181 178 176 173 172 169 163 166 170 169 172 171 168 170 171 171 171 171 175 175 168 165 173 179 174 172 176 181 179 173 177 183 184 191 193
217 214 172 222 223 216 243 227 150 178 210 204 220 218 217 209 204 232 210 202 252 121 49 43 116 191 283 291 250 214 202 202 194 193 187 184 189 191 200 207 200 196 189 186 187 182 184 184 182 182 180 177 176 179 179 172 164 161 166 171 171 172 172 171 171 172 174 175 177 180 179 177 177 175 177 182 181 180 184 184 181 181 185 189 193 191
206 219 196 206 205 195 228 239 186 190 206 215 230 221 221 215 201 247 202 156 271 124 110 154 175 245 234 258 275 225 198 209 197 190 187 182 185 187 196 209 202 194 189 185 185 186 184 183 184 179 173 178 179 179 183 171 161 163 168 171 172 172 171 172 173 173 176 179 180 185 182 179 182 182 178 184 190 190 189 187 187 186 187 191 192 190
226 231 186 185 194 182 202 235 223 210 210 203 220 226 220 203 195 250 147 149 245 229 138 180 191 218 211 219 299 316 289 235 189 180 179 177 183 184 189 205 204 194 191 186 182 185 184 181 184 176 171 181 182 178 182 173 165 166 168 171 173 172 172 173 175 175 177 180 182 185 185 182 184 188 187 191 198 199 194 190 190 189 190 193 189 187
258 270 205 176 186 178 189 228 230 221 227 173 207 228 214 190 203 250 190 168 228 256 168 169 158 169 190 177 201 279 316 299 182 178 182 179 181 184 189 199 201 194 191 191 185 182 180 181 182 173 172 181 181 179 180 172 167 167 166 171 174 173 174 174 176 178 178 180 183 185 187 188 188 189 192 197 200 199 196 194 192 192 196 197 185 183
291 289 246 165 183 177 183 223 225 223 239 181 198 226 207 193 200 255 264 209 228 254 201 162 137 155 189 165 164 167 231 290 228 190 184 180 178 183 191 194 197 197 190 189 190 183 178 181 181 172 173 180 179 180 177 165 166 168 168 172 175 175 177 176 176 178 179 182 184 185 188 190 189 189 193 197 199 201 198 196 196 194 196 196 185 183
302 290 221 159 193 178 170 217 224 224 242 238 232 239 211 214 200 193 245 248 233 248 230 149 124 141 240 200 156 150 189 231 221 194 183 181 181 186 190 191 194 192 178 174 183 192 187 183 178 169 171 179 178 177 171 161 164 170 172 176 179 179 178 177 177 177 179 184 186 185 187 192 192 193 196 197 198 204 203 200 203 203 200 199 194 194
303 286 247 184 208 177 162 208 219 209 223 237 254 255 225 218 206 202 234 261 254 287 333 261 117 155 234 163 122 138 207 220 208 193 186 183 183 188 188 189 187 165 128 164 181 211 211 187 174 169 173 179 179 173 166 164 169 174 177 179 180 181 181 180 181 178 179 186 189 187 187 193 197 198 200 198 195 201 206 208 213 211 206 202 198 199
268 262 269 226 217 216 195 196 217 211 194 206 229 228 218 188 171 214 243 245 240 114 139 247 324 219 227 128 122 164 190 221 215 189 181 184 183 186 186 183 175 158 166 187 179 195 217 192 177 172 172 175 172 166 165 169 175 176 178 180 181 181 183 185 183 179 183 187 189 191 189 193 199 199 203 203 198 203 212 216 218 216 210 203 200 202
282 272 293 261 210 237 226 181 206 235 210 195 212 222 226 196 172 198 224 224 224 188 193 231 179 174 202 104 133 179 165 194 231 191 175 183 183 187 189 177 165 163 171 179 142 96 344 253 190 157 155 175 169 161 166 171 174 178 180 179 183 184 184 187 183 179 184 187 188 193 192 193 199 200 203 206 204 209 215 216 217 219 218 210 208 210
359 317 301 292 269 280 283 227 198 228 234 215 213 220 231 229 201 205 214 206 214 216 224 247 174 121 72 105 107 319 112 126 194 182 175 180 179 187 181 157 141 123 100 73 56 79 97 262 122 110 118 187 141 120 141 162 163 175 179 174 178 188 189 190 185 178 182 186 186 189 192 194 199 202 207 209 209 214 217 217 217 219 223 221 219 217
354 292 276 286 282 287 293 270 195 204 235 232 216 210 223 242 231 231 246 211 202 231 211 327 2 183 324 98 86 25 19 99 161 171 180 174 172 180 159 134 126 100 80 75 70 77 115 99 95 102 121 135 108 105 120 260 155 155 168 178 181 186 195 196 190 181 182 186 186 188 193 197 200 204 212 214 215 217 217 219 220 219 222 228 228 223
329 298 277 280 279 259 267 264 191 181 216 245 234 207 206 231 237 245 269 244 175 216 187 152 225 163 154 145 86 65 23 294 258 192 177 158 162 169 148 136 134 108 99 115 125 96 62 74 86 100 114 123 123 130 147 173 196 167 161 177 177 173 194 205 194 187 185 185 186 190 195 199 202 206 214 218 220 222 223 223 224 223 222 227 232 229
302 311 278 263 266 241 226 274 255 204 206 226 246 228 201 207 228 244 257 240 211 217 207 204 174 135 128 130 95 85 97 263 287 233 188 157 157 159 145 142 137 121 121 129 121 103 76 77 92 106 115 135 145 147 144 151 170 169 158 166 168 172 190 195 185 186 189 189 191 194 197 200 203 206 213 218 219 225 232 233 232 229 223 225 233 233
292 287 268 264 268 272 288 305 305 297 258 208 228 245 223 200 212 242 252 239 231 224 236 32 120 135 136 127 105 91 111 110 55 298 264 173 155 152 143 137 133 133 138 133 131 143 124 89 80 98 110 136 152 161 154 147 156 159 157 166 169 171 180 180 177 182 184 187 192 197 199 201 206 209 212 215 216 222 235 245 249 246 235 227 232 237
269 268 267 267 261 266 275 282 293 296 285 251 225 242 252 220 196 221 244 234 113 189 260 51 106 125 120 106 106 106 123 110 115 239 282 233 165 150 142 141 142 145 146 141 144 154 146 135 142 130 114 128 145 155 155 148 151 153 155 167 171 171 176 177 179 180 180 185 191 195 199 202 207 212 213 216 216 218 230 245 255 262 262 250 238 238
269 269 272 274 265 266 268 268 273 274 274 280 254 230 247 247 210 211 227 224 222 178 117 105 108 112 107 101 110 140 174 127 134 172 305 287 180 153 147 148 151 151 150 146 144 149 153 151 154 155 155 164 152 137 141 144 149 155 162 172 178 183 184 180 181 181 184 191 193 194 198 200 207 214 215 216 217 216 224 237 248 260 274 276 262 250
298 275 273 280 277 278 276 264 258 254 257 270 264 237 235 247 241 235 227 218 227 198 113 107 103 100 109 123 118 140 151 129 139 133 59 9 321 171 155 152 155 155 150 146 141 143 149 151 150 153 160 167 161 141 137 136 139 151 167 180 186 194 195 187 187 188 189 194 197 197 197 197 202 206 203 199 198 199 207 219 233 248 261 268 266 266
225 273 278 279 276 270 269 263 249 242 247 261 278 316 333 321 317 295 260 229 240 229 108 104 101 97 109 125 119 131 131 127 144 128 103 57 332 349 114 129 132 132 129 132 134 134 139 140 141 147 151 154 156 155 165 196 186 173 192 202 201 213 217 200 197 201 202 201 200 198 197 198 200 197 190 188 190 194 201 208 217 232 247 255 258 264
229 274 278 275 274 251 253 307 317 275 259 294 2 10 0 357 12 4 345 4 354 333 112 111 107 108 121 126 126 127 121 124 132 122 119 122 89 44 46 71 75 79 96 114 122 123 128 130 131 137 138 133 131 133 143 162 147 114 181 205 211 232 240 236 238 242 240 234 229 223 214 209 209 207 199 198 205 208 212 221 230 237 243 247 253 261
258 273 276 284 297 264 249 17 360 328 318 51 24 16 10 11 29 31 27 28 19 7 57 114 111 121 131 134 128 110 96 93 90 88 93 103 104 92 75 75 64 72 102 100 96 96 99 102 102 102 100 93 87 82 82 89 87 74 70 92 144 194 212 230 245 248 250 252 255 256 245 235 234 232 223 219 223 226 231 240 247 250 249 248 251 259
268 280 284 225 255 282 291 343 351 334 59 59 27 35 34 33 40 42 39 32 24 26 45 56 63 96 114 116 106 94 91 84 73 69 69 84 96 85 74 85 124 91 92 91 85 81 80 78 75 75 78 77 76 74 72 76 83 83 82 85 92 102 103 95 104 177 213 224 238 250 253 254 257 257 254 247 242 240 241 244 244 245 249 248 246 246
289 281 286 282 246 267 304 299 279 102 119 328 31 68 71 53 53 50 41 32 24 29 40 45 43 54 72 85 95 100 99 91 82 77 71 76 93 98 94 120 128 105 97 95 91 87 83 77 71 68 67 65 68 72 72 74 81 86 89 89 85 82 80 80 76 67 63 146 220 237 247 250 244 247 257 256 250 246 242 239 237 235 237 240 240 235
298 259 220 303 281 253 253 292 283 123 161 303 11 45 96 86 67 51 35 26 24 27 29 24 17 69 82 86 107 123 109 97 86 80 79 86 98 106 105 102 101 100 101 101 98 93 87 84 83 82 76 66 66 68 71 77 83 85 85 85 86 85 85 84 78 68 63 64 70 77 70 97 167 186 209 221 228 238 236 233 237 239 239 243 245 240
284 323 112 295 285 266 218 102 271 264 149 139 24 32 53 62 77 88 68 32 31 37 38 21 344 4 94 114 144 127 103 93 85 76 80 89 88 86 88 88 89 91 95 98 98 93 90 90 89 87 84 79 75 74 75 80 84 83 79 78 84 90 91 89 83 76 73 71 72 74 70 74 105 127 109 103 107 104 152 221 236 243 245 245 245 242
251 155 170 259 270 263 288 127 176 191 174 187 13 32 29 8 47 125 120 63 48 56 73 67 3 339 29 146 164 131 101 85 80 75 76 84 83 83 86 88 90 92 93 97 101 100 101 103 103 100 96 89 83 81 83 86 85 83 78 74 77 83 85 83 81 79 77 75 74 73 70 73 79 80 77 71 66 71 77 62 278 270 260 254 255 255
234 146 156 246 226 163 140 217 211 202 224 274 338 0 18 3 333 255 139 74 60 72 84 93 83 10 18 17 27 68 84 91 95 85 69 81 89 92 93 94 96 98 96 96 100 102 105 110 113 112 108 101 95 93 93 94 93 90 86 80 76 74 72 73 77 80 78 75 74 71 70 72 73 73 75 70 67 76 85 79 48 313 275 264 272 280
219 164 172 209 195 164 164 173 347 287 279 320 335 334 2 3 314 278 161 74 34 61 85 93 102 97 93 81 48 26 22 93 112 126 107 101 105 103 103 103 103 103 101 99 100 104 109 112 110 106 104 103 104 103 101 100 97 94 92 87 81 76 73 71 74 77 75 73 74 75 76 74 71 70 72 68 66 73 83 88 87 88 140 191 318 11
223 194 200 199 188 182 174 149 104 225 292 319 326 327 337 329 301 284 129 78 15 60 88 87 86 94 107 116 110 119 221 121 115 124 117 107 110 111 111 111 108 106 105 105 110 115 114 108 100 95 95 95 98 101 99 97 96 94 94 92 87 86 86 80 75 74 72 71 75 81 84 80 76 74 71 67 65 63 66 80 89 94 102 102 104 103
274 324 324 252 211 154 124 102 90 184 282 304 313 332 340 330 34 81 87 87 48 63 81 85 88 94 91 99 107 120 134 128 126 129 121 113 117 116 115 116 115 110 107 107 111 112 107 104 102 100 100 99 99 100 98 95 94 95 97 97 96 97 97 89 80 79 78 76 75 79 87 87 79 71 64 62 64 59 55 63 74 77 76 68 78 108
329 32 32 12 55 84 97 103 114 151 310 315 307 334 8 33 120 126 110 85 65 57 72 80 78 73 74 85 98 108 123 129 131 133 128 126 130 126 126 128 123 118 118 118 116 112 108 110 111 106 105 102 96 95 97 95 93 91 91 93 97 102 103 97 91 87 85 84 81 80 85 87 82 76 69 63 59 58 56 56 63 67 64 59 68 87
357 24 70 62 63 90 134 107 119 137 30 15 23 73 60 70 110 126 94 82 70 62 70 72 71 79 84 91 101 110 120 128 131 132 132 136 135 129 133 135 131 129 130 127 124 122 117 114 111 103 97 91 85 87 92 93 92 88 81 82 89 99 104 105 106 100 91 89 92 92 92 88 81 80 78 66 58 64 65 63 66 66 59 60 68 74
335 99 118 83 76 110 129 101 107 115 82 66 82 95 84 77 81 78 75 77 73 72 74 65 65 76 89 108 119 121 124 130 133 130 133 141 135 128 135 139 136 136 135 130 126 122 115 112 110 104 99 95 92 93 93 94 95 92 85 82 85 88 92 97 102 102 96 89 88 93 106 104 84 70 67 69 78 85 78 75 84 75 57 57 61 54
185 172 150 114 107 110 107 109 113 104 92 84 79 77 73 70 69 69 71 69 66 72 80 81 76 71 70 79 91 91 95 118 136 136 138 139 131 134 144 143 139 136 134 132 129 123 121 124 119 112 111 111 108 107 105 103 99 94 93 95 91 85 85 88 92 95 95 90 84 78 81 89 91 82 62 47 71 86 78 80 97 85 60 57 58 48
146 185 176 146 141 131 116 122 121 109 111 115 101 88 80 75 72 74 76 72 67 68 69 73 83 91 87 79 77 79 80 84 120 124 120 108 112 128 136 136 142 141 133 132 135 132 132 134 125 120 120 118 115 113 110 108 107 107 110 109 103 98 95 95 102 106 106 105 96 81 70 67 76 95 72 25 43 72 72 73 87 90 77 59 43 41
114 234 189 125 127 124 115 121 122 118 123 122 110 102 94 85 82 82 86 88 81 72 68 64 64 74 87 90 98 117 131 134 120 118 122 111 107 117 114 117 131 130 122 128 136 133 129 129 126 126 123 116 114 115 115 116 119 120 116 107 104 107 105 100 110 121 130 137 122 97 84 75 62 49 45 50 55 53 53 61 68 69 73 69 40 41
122 209 129 109 114 124 131 136 142 139 129 112 96 91 88 87 85 75 74 80 75 68 69 68 62 58 62 71 80 95 112 125 138 150 149 134 119 114 113 116 122 120 122 132 137 130 130 135 137 137 132 127 126 126 126 129 128 123 117 108 104 107 105 96 83 82 99 110 101 87 75 76 68 47 36 50 59 42 36 51 65 58 52 47 21 6
191 150 109 132 152 147 137 138 143 140 128 115 104 98 95 96 92 78 66 67 66 61 59 64 66 60 52 53 62 74 88 109 120 106 97 109 121 120 120 128 137 135 137 145 146 143 144 146 147 145 139 137 138 137 135 138 141 139 133 122 115 114 108 102 99 94 78 66 66 67 58 57 61 47 28 36 49 49 40 40 43 33 15 2 344 327
94 59 69 101 115 109 111 113 104 92 105 109 106 101 96 92 92 88 74 65 67 66 59 57 59 60 53 47 50 61 70 81 93 94 93 103 121 123 131 151 164 161 159 159 159 156 153 152 152 149 146 146 147 148 150 153 154 150 140 132 135 139 130 127 154 134 105 74 64 71 67 61 64 57 35 33 37 44 51 36 13 0 0 359 350 327
Height
748 762 767 765 762 753 748 746 745 752 765 777 786 789 788 794 801 799 795 790 788 801 807 798 797 799 797 796 792 790 789 789 792 791 790 789 790 791 791 792 795 794 793 792 795 797 799 802 806 809 812 814 816 818 821 822 824 826 828 830 832 833 835 837 838 840 841 841 842 842 844 845 846 847 848 848 849 850 851 852 853 854 855 856 857 858
750 766 764 753 750 743 739 739 738 747 757 767 778 787 792 797 802 799 796 794 791 800 808 801 799 800 797 796 792 790 794 793 791 792 793 790 790 790 789 792 794 793 791 792 795 796 799 802 805 809 811 813 816 818 821 822 824 826 828 830 832 833 835 837 838 839 840 841 841 842 844 845 846 847 848 849 849 850 852 853 853 854 855 856 857 858
762 766 755 742 738 737 736 733 738 748 755 765 775 785 797 798 800 803 798 796 796 801 807 805 804 804 800 797 796 795 796 794 790 790 790 790 791 791 789 792 793 792 793 793 795 796 798 801 804 808 811 813 816 818 821 822 824 826 828 830 832 833 835 837 839 839 840 841 841 843 844 845 846 847 848 850 850 851 852 853 854 855 856 857 858 859
768 759 745 737 733 738 741 735 740 750 754 766 774 784 798 796 802 813 805 798 797 797 803 807 809 811 809 804 801 800 799 797 796 793 790 787 789 790 786 789 792 793 795 795 795 795 797 801 804 807 810 812 815 817 819 822 824 825 827 830 831 833 835 836 838 840 841 841 842 844 845 846 847 848 849 850 851 851 853 854 855 856 857 857 859 860
756 743 733 735 734 737 743 739 744 756 762 765 767 778 793 794 798 808 804 801 801 801 802 808 820 822 817 815 809 804 804 803 800 799 798 791 787 788 786 787 790 790 793 795 795 795 796 800 803 806 809 811 814 816 818 820 822 824 827 829 831 833 834 836 838 840 841 841 843 845 845 847 848 849 850 851 851 852 853 854 855 856 857 858 859 860
747 732 725 735 738 736 743 745 746 759 766 767 767 771 782 788 794 801 803 806 814 818 808 808 830 836 821 817 813 807 808 807 804 805 806 797 789 789 788 788 789 789 790 792 793 794 795 798 802 806 808 810 812 815 817 819 821 823 826 828 830 832 834 836 838 840 841 842 843 845 846 847 848 849 850 851 851 852 853 854 855 856 857 858 859 859
741 728 722 733 738 736 745 749 748 756 764 769 769 767 773 782 791 801 805 811 820 823 809 802 824 839 829 819 813 807 808 807 806 808 807 801 797 793 788 788 790 789 790 791 791 792 794 797 801 805 807 809 811 813 815 818 820 822 825 827 829 831 833 835 838 839 841 842 843 845 846 847 848 849 850 851 852 852 853 854 855 856 857 857 858 859
740 734 731 734 736 737 747 752 747 750 762 769 763 760 773 783 790 799 804 810 811 810 810 806 814 833 835 822 810 808 810 809 807 807 805 803 801 796 789 787 788 788 789 790 791 791 793 796 800 803 806 807 809 812 814 816 819 821 824 827 829 831 833 834 837 839 840 842 843 844 846 847 848 849 850 851 851 852 853 853 855 855 856 857 858 858
734 737 736 736 738 740 746 746 740 744 758 762 751 750 767 779 784 791 799 805 801 804 820 818 812 829 833 814 805 809 812 812 808 805 803 801 800 798 792 787 786 787 787 788 790 790 791 795 798 801 804 806 808 810 813 815 818 821 824 826 828 830 832 833 836 838 840 842 843 844 845 846 847 849 850 851 851 853 853 853 854 855 856 857 857 858
730 731 732 738 745 745 742 735 730 739 752 750 743 745 755 769 779 786 794 798 800 809 818 812 808 825 832 816 810 816 814 809 805 800 799 798 797 797 794 789 785 785 786 786 788 788 790 794 797 800 803 804 806 808 811 814 817 821 823 825 828 829 831 833 835 837 839 841 842 843 845 846 847 848 849 850 851 852 853 854 854 854 855 856 857 858
728 723 727 737 742 740 735 729 726 734 742 743 748 753 754 762 770 779 786 792 812 823 809 797 798 811 827 820 809 810 803 794 795 796 797 796 794 794 793 790 785 785 786 785 786 787 790 793 795 799 801 802 804 807 810 813 816 820 822 824 827 829 830 832 834 836 838 840 841 843 844 845 847 848 848 849 850 851 853 854 854 855 856 856 857 858
734 732 735 735 731 731 733 732 730 732 738 746 757 762 766 766 765 780 798 803 820 826 803 789 791 803 822 817 798 792 785 780 786 789 791 793 792 791 790 787 784 784 784 784 786 787 789 792 794 797 800 801 803 806 808 812 815 818 821 824 826 828 830 831 833 835 837 839 841 842 844 844 846 847 847 848 849 851 852 853 854 855 855 856 857 858
743 737 737 737 729 729 737 740 742 741 741 751 761 766 779 789 794 810 822 817 820 819 801 789 796 811 815 800 786 783 779 776 777 778 782 786 788 788 786 784 781 781 782 783 785 787 788 791 792 795 798 800 802 805 807 810 813 817 820 822 824 827 829 830 832 834 836 838 839 841 842 843 845 846 847 848 849 851 852 853 853 854 855 856 856 857
753 741 737 745 738 729 734 743 756 758 750 756 762 767 782 801 821 828 816 814 822 816 803 794 801 819 815 794 781 775 771 771 769 770 775 778 782 784 783 782 780 778 779 781 783 785 787 788 791 794 796 799 802 804 806 808 812 816 819 821 824 825 827 829 831 833 835 837 839 840 841 843 844 845 846 847 849 851 852 852 853 854 854 855 856 856
763 761 745 746 742 733 733 735 743 749 750 753 748 754 771 784 807 817 809 822 829 815 813 812 811 821 817 796 779 768 764 764 765 767 769 772 776 779 780 780 779 778 777 779 781 783 784 786 789 792 795 798 801 803 805 808 811 814 817 820 822 824 826 828 830 832 834 836 838 839 841 842 843 844 845 846 848 850 851 852 852 853 853 854 855 855
757 755 732 730 730 728 737 732 724 738 751 749 739 750 765 762 775 792 796 811 814 806 816 821 813 808 798 785 776 773 770 763 763 766 769 773 775 776 781 780 778 777 776 777 780 781 783 785 787 790 794 797 799 802 804 807 810 813 816 819 821 823 825 827 829 831 833 835 837 838 840 841 842 843 845 846 848 849 850 851 851 852 853 853 854 855
762 753 724 724 728 724 734 732 722 735 749 747 747 756 751 740 755 779 787 787 789 799 809 808 806 799 791 787 780 778 780 773 768 769 770 773 774 776 780 779 777 777 776 777 778 779 781 783 786 788 792 795 797 800 803 805 809 811 814 817 819 822 824 826 828 830 832 834 836 837 839 840 841 843 845 846 847 849 849 850 851 852 852 852 853 854
763 761 730 726 737 727 724 729 724 724 731 746 757 749 736 739 751 769 788 789 789 803 802 794 802 806 804 801 786 781 788 784 777 773 771 773 775 778 779 777 777 776 777 779 778 778 780 782 785 788 791 794 796 799 802 804 808 811 813 816 818 820 822 824 826 828 831 833 834 836 838 839 841 842 844 845 846 848 848 849 850 851 852 852 853 853
753 765 742 726 736 729 719 734 741 729 721 733 741 733 739 764 773 774 790 797 798 807 800 786 795 810 812 799 787 789 793 787 781 775 773 774 774 776 777 777 778 777 780 783 781 780 781 782 785 787 790 793 795 798 801 804 807 810 813 815 817 819 821 823 825 827 829 831 833 835 836 838 840 841 843 844 845 847 847 848 849 850 851 851 852 852
749 767 761 734 725 728 730 743 754 747 733 729 733 734 739 757 771 776 781 782 789 809 815 802 801 809 802 785 784 798 797 786 781 774 770 771 770 772 774 775 778 779 782 785 784 783 783 782 784 786 790 793 794 798 800 803 807 809 812 815 816 819 820 822 824 825 828 830 831 833 835 837 839 840 842 843 844 846 846 847 848 849 849 850 851 852
748 761 769 746 728 735 744 745 748 747 743 744 750 751 746 746 758 771 771 764 774 804 824 822 819 808 785 773 781 791 789 782 776 770 768 767 767 769 771 773 777 780 782 783 784 785 784 783 783 786 790 793 795 798 800 803 807 809 811 814 816 818 819 821 822 824 827 828 830 832 834 836 838 839 841 842 843 844 845 846 847 847 848 849 850 851
754 761 768 759 747 748 743 732 732 734 735 743 749 748 745 745 757 777 782 765 759 781 796 803 817 806 774 767 773 772 777 782 776 769 767 766 767 768 769 773 776 778 780 782 784 787 788 788 787 787 791 795 797 798 801 804 806 809 811 813 815 817 818 820 821 823 825 827 828 830 832 834 836 838 839 841 842 843 844 845 845 846 847 848 849 850
757 765 773 769 758 751 737 721 724 728 724 729 735 736 737 741 750 770 781 767 759 768 767 772 800 800 771 764 769 766 774 782 776 767 764 766 767 766 768 773 776 778 781 784 786 789 792 795 792 790 795 801 801 799 803 807 808 809 811 812 815 817 818 820 820 822 824 825 827 829 831 833 834 836 838 839 840 841 842 843 844 845 846 847 848 848
761 769 778 777 762 747 735 720 718 722 726 731 730 728 735 739 738 744 749 750 759 768 766 778 806 804 776 765 768 768 772 776 771 765 763 765 766 766 770 774 776 782 787 789 791 792 793 795 794 794 798 802 802 802 806 812 813 811 811 812 814 816 818 820 820 822 823 824 826 828 830 832 833 835 836 837 839 840 841 842 843 844 845 846 847 847
771 775 781 789 785 770 755 743 733 731 735 739 730 724 731 735 734 738 737 742 759 764 764 784 805 797 775 766 770 773 778 780 776 768 762 764 766 767 771 776 779 784 789 792 795 796 794 794 796 798 798 799 801 803 805 810 814 814 812 813 814 815 818 821 821 821 823 824 825 827 828 830 832 833 835 836 837 838 839 841 841 842 844 845 846 846
773 778 780 794 801 791 780 772 760 747 741 740 733 725 728 731 737 745 745 752 765 760 754 771 786 783 772 768 774 779 785 791 790 778 766 762 766 768 772 779 783 786 790 793 795 796 795 795 797 798 798 799 801 803 805 808 811 813 813 813 814 816 818 820 821 821 822 823 824 826 827 829 830 832 833 835 836 838 838 839 840 841 842 843 844 845
774 776 775 785 791 785 780 773 759 747 743 743 739 730 727 728 734 742 747 755 759 753 759 770 773 777 776 772 777 782 784 791 795 790 777 766 765 769 774 781 785 789 793 793 794 796 796 798 799 799 800 801 801 803 804 806 808 810 812 813 814 816 817 819 820 820 822 823 824 825 826 828 829 831 832 834 835 837 838 838 839 840 841 842 844 845
777 780 774 776 778 772 768 762 753 748 745 743 740 737 731 726 731 742 749 749 746 756 779 782 770 777 782 777 784 790 786 787 788 789 787 777 768 769 774 781 785 789 794 794 794 796 797 799 801 802 803 803 804 805 805 805 807 808 811 813 814 816 817 818 820 820 821 822 823 824 825 826 828 830 831 833 834 835 837 838 839 839 840 842 843 844
775 781 774 771 771 765 759 757 753 749 747 743 741 739 735 728 731 741 744 739 738 755 782 782 771 782 786 779 786 790 785 783 782 781 783 780 774 771 773 779 782 785 790 793 794 795 797 798 800 803 807 806 806 807 806 807 809 809 811 813 814 816 817 817 818 819 820 821 822 823 824 825 827 829 830 832 833 834 836 837 838 839 840 840 841 843
774 780 773 771 773 767 761 758 754 750 749 747 740 735 735 735 733 732 731 730 732 744 762 768 771 783 784 777 779 781 777 777 777 776 779 782 782 778 774 777 780 781 784 788 791 793 795 797 799 803 807 807 808 808 809 810 811 812 814 815 816 817 817 817 818 818 820 821 822 823 824 825 826 828 829 830 832 833 835 836 837 838 839 839 840 841
775 782 773 770 777 775 764 756 753 751 751 751 747 742 743 746 745 739 730 727 733 743 753 763 775 784 781 774 775 775 774 775 776 778 783 785 788 787 782 781 783 785 787 789 790 792 794 797 800 803 806 808 809 809 811 813 814 814 815 816 817 817 817 818 818 819 820 821 822 823 824 825 826 827 828 830 831 833 834 835 836 837 838 839 840 841
774 781 775 775 785 780 764 763 766 757 751 757 763 763 763 763 764 761 751 744 748 754 758 767 781 787 781 776 776 775 775 777 778 780 785 788 791 794 792 791 792 794 794 794 793 793 795 798 800 804 806 807 809 810 812 814 815 816 816 816 817 817 818 818 818 819 820 821 823 824 824 825 826 827 829 830 831 832 833 834 835 836 837 839 840 841
771 779 779 785 795 784 765 769 777 772 775 783 781 775 775 775 773 771 767 763 761 760 765 774 780 780 776 776 779 781 783 785 784 782 784 789 793 795 795 795 798 798 795 796 796 796 798 800 803 806 807 808 810 812 814 815 815 816 815 816 817 817 818 819 819 820 820 821 824 825 825 826 827 829 830 830 831 833 833 834 835 835 837 837 839 840
770 776 779 784 795 792 775 769 777 796 812 804 784 775 777 779 780 780 779 776 772 770 774 779 779 774 774 778 782 788 792 791 790 787 786 789 793 796 797 797 798 797 796 797 798 799 801 803 806 808 809 811 813 815 816 816 816 816 816 816 817 818 818 819 820 820 821 822 823 824 825 827 828 829 831 831 832 833 833 833 834 834 836 836 837 838
772 778 781 782 787 789 782 780 797 819 817 792 775 774 775 776 778 781 782 781 781 782 783 786 787 782 780 785 789 793 795 792 789 790 789 790 792 795 798 797 795 796 797 798 800 802 804 806 809 811 813 815 816 817 818 818 817 817 817 817 818 818 819 820 821 821 822 822 823 823 824 826 827 828 829 831 832 832 832 832 832 833 834 834 836 838
773 780 785 787 788 788 791 804 818 816 797 783 782 779 775 777 780 786 794 791 787 790 793 795 796 787 783 790 793 793 792 789 788 791 792 792 792 793 795 796 796 797 799 800 802 804 806 808 811 814 816 818 819 820 820 819 819 819 819 819 820 820 820 821 822 823 823 823 823 824 824 826 826 827 827 829 831 831 831 830 830 831 832 833 835 836
770 779 787 796 799 794 798 812 816 808 801 800 795 783 778 782 783 791 805 803 792 792 796 801 803 796 790 795 796 791 788 788 793 796 794 792 793 793 794 796 798 800 801 802 804 805 806 809 812 816 819 820 821 821 821 821 821 821 821 822 822 822 821 821 822 824 824 825 825 825 825 826 826 827 828 828 829 830 829 829 829 830 831 832 833 833
768 777 787 800 804 796 801 813 815 818 821 811 796 784 778 780 778 780 797 807 801 796 797 800 806 804 799 799 797 790 789 797 805 805 798 795 795 796 797 799 800 803 803 804 806 806 807 808 810 814 819 822 823 822 821 822 822 822 823 823 824 824 823 823 823 824 825 826 826 826 826 826 826 827 829 829 829 829 829 829 830 830 831 831 832 832
768 773 779 791 798 797 808 819 819 825 827 810 795 786 779 780 778 776 795 811 804 795 798 801 804 806 805 805 801 795 798 809 815 810 802 800 799 799 800 801 802 805 806 807 808 809 810 810 809 811 815 819 822 823 823 823 823 822 823 824 825 826 825 825 825 825 825 826 827 827 826 826 827 828 829 829 829 830 830 830 831 831 831 831 831 831
772 776 781 790 796 796 806 819 823 827 821 802 791 786 780 780 779 788 815 822 801 792 800 802 802 805 806 807 809 809 811 814 814 809 803 800 800 802 803 804 805 806 807 808 810 811 812 813 812 812 814 817 820 822 823 823 822 823 823 824 826 826 827 828 828 827 827 827 828 828 827 827 828 829 829 830 830 831 831 832 833 833 833 832 833 832
776 778 781 786 792 794 801 813 824 827 813 795 789 785 778 780 788 805 824 816 795 793 798 798 801 804 802 803 807 810 812 809 806 806 803 801 801 803 804 806 808 808 809 810 812 813 814 815 816 816 816 818 820 822 824 824 824 824 824 825 826 827 828 830 830 829 829 829 829 829 829 828 829 830 830 831 831 832 833 833 834 835 834 834 834 832
785 784 787 791 798 804 807 813 827 829 809 791 789 783 776 791 810 814 808 797 791 794 794 795 800 800 798 800 801 802 804 803 803 805 804 803 803 803 804 806 808 810 812 812 813 814 815 817 818 818 819 821 822 824 824 825 826 826 826 826 827 828 830 831 831 831 831 831 831 831 831 832 832 832 831 831 832 833 834 834 834 835 835 835 834 833
786 792 802 801 803 813 818 820 831 833 809 789 790 790 787 799 810 804 793 791 794 794 793 797 799 796 797 800 799 799 801 800 802 804 804 804 803 802 805 807 807 810 812 813 814 815 816 818 819 820 822 823 824 825 825 827 827 827 828 828 828 829 830 831 832 832 832 833 833 833 834 835 835 835 835 834 834 834 834 835 835 835 836 835 835 835
784 794 805 801 801 815 824 820 818 816 801 788 793 799 796 794 794 791 791 794 795 794 795 797 798 797 798 799 799 801 801 801 802 803 803 804 804 803 806 808 808 810 812 813 815 816 818 820 821 822 824 825 825 826 827 828 829 829 830 831 831 832 831 831 832 833 833 834 834 834 835 836 836 837 837 837 836 835 835 835 835 836 836 836 836 837
785 787 794 796 797 806 812 807 800 798 794 790 792 795 793 790 788 788 792 794 795 796 797 797 798 797 797 798 801 802 802 802 803 802 803 805 804 805 808 809 810 811 812 813 816 818 820 822 822 824 826 826 827 828 829 830 831 831 831 832 833 834 834 833 833 834 834 835 835 835 836 836 836 838 838 837 837 837 837 837 837 837 837 837 837 837
779 776 782 789 793 795 798 797 793 793 796 793 792 793 792 791 791 791 793 796 796 797 796 797 799 799 797 799 802 803 804 805 804 804 804 804 805 807 809 810 811 812 813 814 817 819 821 823 824 826 827 828 829 830 830 831 832 832 833 834 834 835 836 836 835 835 835 835 835 835 835 836 836 837 838 838 838 837 838 838 838 838 838 838 838 838
774 773 777 785 792 797 801 799 793 795 797 795 795 796 794 794 794 794 796 798 797 796 797 797 798 799 799 800 802 805 807 806 806 807 806 805 807 809 809 811 813 814 815 816 818 820 822 823 825 826 827 829 830 830 831 833 833 834 835 835 835 836 837 837 837 836 835 835 835 835 835 836 836 837 837 837 838 839 839 839 839 839 839 839 840 839
776 775 777 782 789 795 800 797 791 793 794 792 794 796 796 796 797 794 795 797 797 797 798 797 798 799 799 801 802 804 807 807 808 809 809 810 811 811 811 813 814 815 817 818 819 821 823 824 826 828 828 829 830 831 832 833 834 835 835 835 836 837 837 838 838 837 836 836 836 836 836 836 836 837 837 838 838 839 840 840 840 841 841 841 841 841
775 778 778 782 790 795 797 795 793 795 796 794 795 796 796 797 797 796 796 797 797 799 800 799 800 800 800 801 802 803 806 809 809 809 810 812 813 814 815 816 816 818 820 820 821 823 824 826 828 829 829 830 831 832 833 834 834 835 835 836 837 837 837 838 838 837 837 836 836 836 836 836 837 837 838 838 838 839 840 840 841 842 842 842 842 842
775 779 778 783 794 799 795 793 795 798 800 799 797 798 797 797 798 799 800 800 801 802 802 802 802 802 802 802 802 803 807 809 809 810 812 814 815 816 817 818 818 820 821 822 823 825 826 828 829 829 830 832 832 833 834 834 835 836 836 836 837 837 837 838 837 837 837 837 837 837 837 838 838 838 838 839 839 840 840 841 842 842 842 843 843 843
777 781 782 786 794 795 791 790 792 794 798 799 798 798 798 797 799 802 803 803 804 804 803 804 805 805 805 805 804 805 807 808 809 812 814 816 816 817 818 819 820 821 822 823 824 826 827 829 830 830 831 832 832 834 834 835 835 836 836 837 837 837 838 838 837 837 837 837 838 838 838 839 839 839 839 840 840 840 841 841 842 842 842 843 843 843